Tracking 29892 objects as of 21-Nov-2024
HD Live streaming from Space Station
objects crossing your sky now

STARLINK-3700

Track STARLINK-3700 now!
10-day predictions
STARLINK-3700 is classified as:


NORAD ID: 51956
Int'l Code: 2022-025A
Perigee: 548.3 km
Apogee: 550.4 km
Inclination: 53.1 °
Period: 95.5 minutes
Semi major axis: 6920 km
RCS: Unknown
Launch date: March 9, 2022
Source: United States (US)
Launch site: AIR FORCE EASTERN TEST RANGE (AFETR)
Your satellite tracking list
Your tracking list is empty




NASA's NSSDC Master Catalog

Two Line Element Set (TLE):
1 51956U 22025A   24325.46926157 -.00000395  00000-0 -69987-5 0  9996
2 51956  53.0553 351.7882 0001522  80.0462 280.0699 15.08034650149553
Source of the keplerian elements: AFSPC